Location: Barcelona
(41.3830°N, 2.1830°E)
Time: 03:54:45
(UTC+02:00)

ISS - Pass Details

Date: 03 July 2020
Orbit: 417 x 421 km, 51.6° (Epoch: 09 July)

Event Time Altitude Azimuth Distance (km) Brightness Sun altitude
Exits shadow 04:08:54 59° 265° (W) 484 -3.7 -18.6°
Maximum altitude 04:09:23 74° 325° (NW) 437 -3.7 -18.6°
Drops below altitude 10° 04:12:45 10° 52° (NE) 1,496 0.1 -18.3°
Sets 04:14:51 0° 54° (NE) 2,363 1.4 -18.0°
